SCP
0 0 0 0 0 0 0 0 0 0 0 0 0 0 0 0 0 0 0 0 0 0 0 0 0 0 0 0 0 0 0 0 0 0 0 0 0 0 0 0 0 0 0 0
0 0 0 0 0 0 0 0 0 0 0 0 0 0 0 -0 0 0 0 0 0 0 -0 0 0 0 0 0 0 0 0 0 0 0 0 0 0 0 0 0 0 0 0 0
0 0 0 0 0 0 0 0 0 0 0 0 0 -0 0 0 0 0 0 0 0 0 0 0 0 0 0 0 0 0 0 0 0 0 0 0 0 0 0 0 0 0 0 0
0 0 0 0 0 0 0 0 0 0 0 0 0 -0 0 0 0 0 0 0 0 0 0 0 0 0 0 0 0 0 0 0 0 0 0 0 0 0 0 0 0 0 0 0
0 0 0 0 0 0 0 0 0 0 0 0 0 0 -0 0 0 0 0 0 0 0 0 0 0 0 0 0 0 0 0 0 0 0 0 0 0 0 0 0 0 0 0 0
0 0 0 0 0 0 0 0 0 0 0 0 0 0 -0 0 0 0 0 0 0 0 0 0 0 0 0 0 0 0 0 0 0 0 0 0 0 0 0 0 0 0 0 0
0 0 0 0 0 0 0 0 0 0 0 0 0 0 0 0 0 0 0 0 0 0 0 0 0 0 0 0 0 0 0 0 0 0 0 0 0 0 0 0 0 0 0 0
0 0 0 0 0 0 0 0 0 0 0 0 0 0 0 0 0 0 0 0 0 0 0 0 0 0 0 0 0 0 0 0 0 0 0 0 0 0 0 0 0 0 0 0
0 0 0 0 0 0 0 0 0 0 0 0 0 0 0 0 0 0 0 0 0 0 0 0 0 0 0 0 0 0 0 0 0 0 0 0 0 0 0 0 0 0 0 0
0 0 0 0 0 0 0 0 0 0 0 0 0 0 0 0 0 0 0 0 0 0 0 0 0 0 0 0 0 0 0 0 0 0 0 0 0 0 0 0 0 0 0 0
0 0 0 0 0 0 0 0 0 0 0 0 0 0 0 0 0 0 0 0 0 0 0 0 0 0 0 0 0 0 0 0 0 0 0 0 0 0 0 0 0 0 0 0
0 0 0 0 0 0 0 0 0 0 0 0 0 0 0 0 0 0 0 0 0 0 0 0 0 0 0 0 0 0 0 0 0 0 0 0 0 0 0 0 0 0 0 0
0 0 0 0 0 0 0 0 0 0 0 0 0 0 0 0 0 0 0 0 -0 0 -0 -0 0 0 0 0 0 0 0 0 0 0 0 0 0 0 0 0 0 0 0 0
0 0 0 0 0 0 0 0 0 0 0 0 0 0 0 0 0 0 -0 -0 0 -0 -0 -0 -0 0 0 0 0 0 0 0 0 0 0 0 0 0 0 0 0 0 0 0
0 0 0 0 0 0 0 0 0 0 0 0 0 0 0 0 0 -0 -0 -0 -0 -0 -0 -0 -0 -0 0 0 0 0 0 0 0 0 0 0 0 0 0 0 0 0 0 0
0 0 0 0 0 0 0 0 0 0 0 0 0 0 0 0 0 0 0 0 0 -0 -0 0 0 -0 0 0 0 0 0 0 0 0 0 0 0 0 0 0 0 0 0 0
0 0 0 0 0 0 0 0 0 0 0 0 0 0 0 0 0 0 0 0 0 0 0 0 0 0 0 0 0 0 0 0 0 0 0 0 0 0 0 0 0 0 0 0
0 0 0 0 0 0 0 0 0 0 0 0 0 0 0 0 0 0 0 0 0 0 0 0 0 0 0 0 0 0 0 0 0 0 0 0 0 0 0 0 0 0 0 0
0 0 0 0 0 0 0 0 0 0 0 0 0 0 0 0 0 0 0 0 0 0 0 0 0 0 0 0 0 0 0 0 0 0 0 0 0 0 0 0 0 0 0 0
0 0 0 0 0 0 0 0 0 0 0 0 0 0 0 0 0 0 0 0 0 0 0 0 0 0 0 0 0 0 0 0 0 0 0 0 0 0 0 0 0 0 0 0
0 0 0 0 0 0 0 0 0 0 0 0 0 0 0 0 0 0 0 0 0 0 0 0 0 0 0 0 -0 0 0 0 0 0 0 0 0 0 0 0 0 0 0 0
0 0 0 0 0 0 0 0 0 0 0 0 0 0 0 0 0 0 0 0 0 0 0 0 0 0 0 0 -0 0 0 0 0 0 0 0 0 0 0 0 0 0 0 0
0 0 0 0 0 0 0 0 0 0 0 0 0 0 0 0 0 0 0 0 0 0 0 -0 -0 -0 -0 -0 -0 0 0 0 0 0 0 0 0 0 0 0 0 0 0 0
0 0 0 0 0 0 0 0 0 0 0 0 0 0 -0 0 0 0 0 0 0 0 0 -0 -0 -0 0 -0 0 0 0 0 0 0 0 0 0 0 0 0 0 0 0 0
0 0 0 0 0 0 0 0 0 0 0 0 0 0 0 0 0 0 0 0 0 0 0 0 0 0 -0 0 0 0 0 0 0 0 0 0 0 0 0 0 0 0 0 0
0 0 0 0 0 0 0 0 0 0 0 0 0 0 0 0 0 0 0 0 0 0 0 0 0 0 0 0 0 0 0 0 0 0 0 0 0 0 0 0 0 0 0 0
Wind_Speed_500mb
7 7 20 21 10 10 12 8 7 6 2 4 12 15 20 21 32 45 50 51 58 63 56 56 55 53 53 52 52 52 48 44 44 43 42 42 40 39 41 41 41 41 39 38
8 23 7 16 10 12 11 9 6 3 4 7 9 21 21 18 33 60 64 68 70 69 65 61 63 65 65 62 59 58 54 50 46 43 40 39 36 40 40 41 43 44 43 41
15 6 23 12 9 12 6 11 7 3 5 5 10 17 13 10 36 58 75 82 79 83 75 70 70 74 73 75 70 63 58 54 50 46 47 46 47 45 47 46 46 45 44 43
8 4 16 12 14 12 10 10 9 11 7 6 4 10 13 12 18 18 57 77 92 90 85 79 77 79 81 78 71 66 62 58 53 51 54 52 48 43 39 38 40 43 44 44
13 12 14 11 14 12 11 11 13 7 7 2 5 3 16 6 17 20 29 60 63 72 87 85 84 83 76 76 75 70 66 62 58 59 57 55 50 44 40 40 43 45 45 45
4 2 3 12 6 12 17 14 15 10 6 4 10 12 12 9 11 10 2 12 22 43 64 70 80 78 81 79 77 76 71 67 63 63 61 59 51 47 47 45 45 45 46 46
6 4 5 4 14 7 7 14 5 5 4 11 4 6 20 14 14 11 29 46 35 25 24 50 69 78 83 85 80 78 76 73 68 66 65 62 54 53 50 46 44 44 46 46
13 4 13 6 9 18 13 15 11 15 9 7 6 11 12 6 6 24 42 44 25 21 23 31 46 65 76 80 80 77 77 75 71 69 67 63 57 57 53 49 45 44 43 40
11 6 4 5 1 6 11 9 12 13 5 4 6 14 19 9 11 24 36 36 24 19 19 24 34 51 64 72 76 76 75 74 70 69 67 64 61 61 57 51 47 45 42 44
14 9 3 2 3 7 7 14 7 5 6 5 5 10 11 6 12 18 29 44 43 28 17 20 20 32 47 61 68 73 74 72 69 68 67 65 63 62 58 55 52 48 45 47
10 8 2 4 10 15 6 5 7 9 8 10 5 11 11 7 5 9 16 37 38 40 34 27 22 18 26 41 56 66 73 75 72 69 67 67 66 65 63 60 55 51 48 48
10 11 8 6 4 2 1 12 12 9 9 3 4 11 4 10 2 9 26 36 35 38 41 38 32 21 20 29 41 52 62 71 71 68 68 68 68 68 67 65 59 55 52 50
16 4 7 9 9 4 8 9 8 9 5 12 12 10 3 5 10 7 25 29 30 40 44 43 42 37 27 26 34 42 49 57 65 68 69 70 71 73 73 69 64 60 56 54
15 6 10 14 9 12 12 12 10 11 6 10 12 6 7 5 11 31 34 41 52 61 67 53 44 50 42 33 30 35 42 48 56 63 68 72 73 73 74 71 68 65 61 58
12 10 4 9 8 6 7 14 22 19 20 14 8 16 16 21 21 28 27 48 47 69 65 63 55 49 41 40 40 39 40 45 52 60 67 73 71 72 74 75 74 70 68 62
2 6 7 5 3 11 2 6 18 16 5 12 7 18 17 48 53 49 73 70 63 63 63 61 62 51 37 38 45 50 52 49 50 59 67 69 71 73 76 77 78 75 72 66
12 11 7 7 3 8 9 21 14 10 10 13 20 25 7 9 20 39 53 54 64 68 61 54 48 49 50 45 47 50 53 55 56 58 61 67 70 73 77 78 78 80 79 71
11 10 6 6 2 2 12 1 5 21 14 17 13 11 14 35 48 57 48 44 38 36 44 47 48 48 48 48 44 46 49 56 59 61 62 64 69 73 76 78 82 83 81 76
2 11 8 9 8 10 11 11 14 14 13 17 25 19 39 28 21 15 16 22 26 34 40 47 49 49 49 51 55 52 48 53 61 62 66 69 70 71 74 79 81 83 82 79
11 13 10 5 11 14 9 3 5 7 11 10 12 8 8 11 3 6 25 36 40 48 51 51 49 54 56 54 53 55 57 54 56 60 69 72 73 71 70 73 76 80 80 78
7 8 12 7 5 14 15 14 7 13 9 6 13 14 14 4 6 24 33 40 47 51 52 54 55 55 55 58 59 57 56 59 54 60 66 71 72 70 66 67 70 74 78 78
12 13 7 6 7 14 19 11 16 7 11 10 9 7 5 4 15 28 36 39 45 50 55 60 61 56 58 62 61 58 55 49 53 55 60 64 65 65 63 64 68 71 75 78
4 12 13 16 13 8 24 10 13 10 10 6 1 4 12 20 29 38 45 49 51 55 59 60 61 62 61 62 59 60 52 46 46 49 51 54 55 55 55 60 67 70 73 77
3 3 7 9 10 16 19 22 14 7 3 4 11 18 25 29 33 39 42 46 49 51 56 59 62 65 68 68 59 54 50 45 42 44 43 44 47 47 50 58 60 64 69 73
9 20 11 7 4 8 14 18 14 6 7 13 19 23 28 33 34 36 38 41 45 49 53 57 63 68 71 68 60 51 44 39 38 38 37 37 41 43 47 53 55 57 57 59
19 14 16 11 24 12 12 28 15 11 16 22 27 30 29 33 35 39 43 47 51 53 55 57 57 58 58 56 51 42 37 33 31 31 33 34 37 42 45 47 49 47 46 48
Wind_Direction_500mb
150 127 197 188 151 151 143 142 165 222 87 185 231 264 272 249 221 237 236 234 233 237 236 231 229 226 224 225 227 226 224 220 219 220 220 221 222 223 223 223 224 225 226 226
71 226 156 130 133 115 131 145 204 323 48 147 345 279 262 210 225 230 234 236 238 239 237 232 228 227 227 228 228 227 226 225 225 224 227 230 231 228 226 227 228 228 228 228
162 248 152 137 142 145 161 152 172 132 53 49 339 295 270 277 240 241 242 245 246 242 237 233 228 228 228 227 227 229 229 228 226 225 225 226 226 228 228 228 229 230 231 231
190 120 151 148 187 139 196 202 136 121 90 233 22 274 300 270 271 238 246 243 244 244 243 240 234 230 229 231 230 230 231 230 227 226 229 231 236 240 242 241 238 236 235 234
223 161 150 155 193 139 213 118 137 116 104 71 303 33 271 302 282 267 251 248 249 247 245 241 237 236 236 233 232 231 230 230 228 229 232 234 235 236 237 238 237 236 236 235
123 69 138 179 105 138 151 83 49 55 81 325 226 159 284 242 218 304 1 325 300 252 243 243 241 239 235 233 232 232 231 231 230 231 234 236 236 236 237 238 240 239 239 238
36 311 298 156 88 60 92 99 31 5 4 225 336 111 249 263 257 251 285 296 300 296 270 242 238 234 232 231 231 231 231 232 231 233 235 236 235 236 239 241 245 246 244 243
146 252 177 178 183 170 180 157 152 191 192 238 87 233 248 217 291 282 292 285 302 308 273 257 242 236 235 233 232 232 232 232 232 235 237 237 236 237 240 241 243 245 247 249
133 221 349 43 73 145 193 182 152 107 20 50 219 284 297 28 34 31 15 25 350 312 322 285 252 240 238 237 235 235 236 236 236 238 238 239 237 238 239 240 241 242 242 243
197 106 357 340 143 43 135 160 81 7 130 216 273 287 242 333 349 13 13 25 27 17 340 334 293 256 246 244 242 238 238 240 242 241 242 241 241 240 240 238 239 241 243 242
136 98 270 132 213 168 129 174 68 118 154 164 164 254 209 180 83 48 13 23 19 17 12 354 332 296 260 249 247 244 242 241 241 242 245 244 242 240 239 239 239 240 242 243
185 116 143 175 272 289 334 177 155 140 205 205 130 271 177 186 11 106 17 21 32 26 19 12 2 337 294 267 256 251 248 246 247 247 247 247 245 242 240 239 239 239 242 243
183 149 86 14 352 5 208 192 138 114 92 191 149 248 258 295 168 349 4 12 16 3 3 7 7 356 335 298 272 262 256 252 249 248 249 248 246 242 240 240 238 239 240 240
112 79 154 181 197 138 184 182 167 140 150 166 221 232 296 246 274 305 322 326 326 330 334 335 331 335 328 318 297 277 266 258 254 251 251 250 248 246 244 242 240 240 241 240
128 164 122 38 94 107 162 175 170 194 201 179 219 204 261 288 306 313 315 316 322 322 328 330 332 332 319 312 306 294 281 269 259 254 252 251 250 248 245 242 240 240 240 240
58 148 133 48 50 58 5 206 201 229 157 288 260 268 222 265 286 301 305 310 316 322 323 321 319 324 321 318 314 309 294 282 270 260 257 254 251 247 244 242 240 240 240 240
121 127 105 208 2 124 318 232 192 184 197 196 219 244 242 289 289 291 298 307 313 318 322 326 323 315 314 311 309 301 296 289 277 269 263 257 252 249 246 244 241 240 239 239
126 98 68 142 88 159 242 320 171 209 226 213 268 254 245 266 284 294 303 308 324 340 338 338 336 332 329 326 323 306 289 280 277 272 268 262 255 250 248 244 241 239 238 239
99 117 95 139 162 280 265 202 174 174 268 203 226 242 255 278 297 319 76 4 349 345 342 339 337 334 327 317 306 307 305 288 275 271 270 266 261 254 250 246 243 240 238 238
51 70 108 111 138 204 245 290 211 117 287 0 208 236 196 157 57 251 346 350 345 339 336 333 333 335 329 323 314 305 295 291 288 280 270 267 265 260 255 252 247 243 239 240
63 33 133 153 189 287 253 208 83 100 234 97 93 99 123 166 240 314 332 332 333 331 331 329 330 330 331 328 320 314 304 293 290 285 278 271 268 264 259 253 247 243 239 238
149 135 168 89 81 265 199 96 173 171 116 107 118 136 141 282 303 312 317 325 326 324 323 322 319 321 324 322 319 314 307 304 291 285 282 277 271 265 258 251 246 241 237 236
186 172 167 177 205 227 187 129 157 149 139 151 44 318 308 310 313 312 313 316 318 318 317 315 313 315 317 319 316 311 311 300 292 286 284 283 276 266 259 251 246 240 235 233
265 184 146 101 211 217 191 190 184 188 198 291 311 311 309 305 307 306 310 314 316 316 314 312 311 311 312 314 315 309 305 298 292 289 286 284 273 264 256 247 243 240 236 231
191 143 162 277 264 164 210 205 205 238 331 330 322 315 307 305 307 306 311 315 317 316 314 313 312 310 311 313 314 310 305 299 296 294 290 279 268 259 252 248 246 242 237 237
192 175 183 210 174 164 177 213 225 275 300 301 299 294 296 303 305 307 311 314 313 312 315 312 311 311 312 313 315 310 304 302 301 297 290 278 267 259 249 240 235 228 227 230
Wind_Speed_850mb
7 7 20 21 10 10 12 8 7 6 2 4 12 15 20 21 32 45 50 51 58 63 56 56 55 53 53 52 52 52 48 44 44 43 42 42 40 39 41 41 41 41 39 38
8 23 7 16 10 12 11 9 6 3 4 7 9 21 21 18 33 60 64 68 70 69 65 61 63 65 65 62 59 58 54 50 46 43 40 39 36 40 40 41 43 44 43 41
15 6 23 12 9 12 6 11 7 3 5 5 10 17 13 10 36 58 75 82 79 83 75 70 70 74 73 75 70 63 58 54 50 46 47 46 47 45 47 46 46 45 44 43
8 4 16 12 14 12 10 10 9 11 7 6 4 10 13 12 18 18 57 77 92 90 85 79 77 79 81 78 71 66 62 58 53 51 54 52 48 43 39 38 40 43 44 44
13 12 14 11 14 12 11 11 13 7 7 2 5 3 16 6 17 20 29 60 63 72 87 85 84 83 76 76 75 70 66 62 58 59 57 55 50 44 40 40 43 45 45 45
4 2 3 12 6 12 17 14 15 10 6 4 10 12 12 9 11 10 2 12 22 43 64 70 80 78 81 79 77 76 71 67 63 63 61 59 51 47 47 45 45 45 46 46
6 4 5 4 14 7 7 14 5 5 4 11 4 6 20 14 14 11 29 46 35 25 24 50 69 78 83 85 80 78 76 73 68 66 65 62 54 53 50 46 44 44 46 46
13 4 13 6 9 18 13 15 11 15 9 7 6 11 12 6 6 24 42 44 25 21 23 31 46 65 76 80 80 77 77 75 71 69 67 63 57 57 53 49 45 44 43 40
11 6 4 5 1 6 11 9 12 13 5 4 6 14 19 9 11 24 36 36 24 19 19 24 34 51 64 72 76 76 75 74 70 69 67 64 61 61 57 51 47 45 42 44
14 9 3 2 3 7 7 14 7 5 6 5 5 10 11 6 12 18 29 44 43 28 17 20 20 32 47 61 68 73 74 72 69 68 67 65 63 62 58 55 52 48 45 47
10 8 2 4 10 15 6 5 7 9 8 10 5 11 11 7 5 9 16 37 38 40 34 27 22 18 26 41 56 66 73 75 72 69 67 67 66 65 63 60 55 51 48 48
10 11 8 6 4 2 1 12 12 9 9 3 4 11 4 10 2 9 26 36 35 38 41 38 32 21 20 29 41 52 62 71 71 68 68 68 68 68 67 65 59 55 52 50
16 4 7 9 9 4 8 9 8 9 5 12 12 10 3 5 10 7 25 29 30 40 44 43 42 37 27 26 34 42 49 57 65 68 69 70 71 73 73 69 64 60 56 54
15 6 10 14 9 12 12 12 10 11 6 10 12 6 7 5 11 31 34 41 52 61 67 53 44 50 42 33 30 35 42 48 56 63 68 72 73 73 74 71 68 65 61 58
12 10 4 9 8 6 7 14 22 19 20 14 8 16 16 21 21 28 27 48 47 69 65 63 55 49 41 40 40 39 40 45 52 60 67 73 71 72 74 75 74 70 68 62
2 6 7 5 3 11 2 6 18 16 5 12 7 18 17 48 53 49 73 70 63 63 63 61 62 51 37 38 45 50 52 49 50 59 67 69 71 73 76 77 78 75 72 66
12 11 7 7 3 8 9 21 14 10 10 13 20 25 7 9 20 39 53 54 64 68 61 54 48 49 50 45 47 50 53 55 56 58 61 67 70 73 77 78 78 80 79 71
11 10 6 6 2 2 12 1 5 21 14 17 13 11 14 35 48 57 48 44 38 36 44 47 48 48 48 48 44 46 49 56 59 61 62 64 69 73 76 78 82 83 81 76
2 11 8 9 8 10 11 11 14 14 13 17 25 19 39 28 21 15 16 22 26 34 40 47 49 49 49 51 55 52 48 53 61 62 66 69 70 71 74 79 81 83 82 79
11 13 10 5 11 14 9 3 5 7 11 10 12 8 8 11 3 6 25 36 40 48 51 51 49 54 56 54 53 55 57 54 56 60 69 72 73 71 70 73 76 80 80 78
7 8 12 7 5 14 15 14 7 13 9 6 13 14 14 4 6 24 33 40 47 51 52 54 55 55 55 58 59 57 56 59 54 60 66 71 72 70 66 67 70 74 78 78
12 13 7 6 7 14 19 11 16 7 11 10 9 7 5 4 15 28 36 39 45 50 55 60 61 56 58 62 61 58 55 49 53 55 60 64 65 65 63 64 68 71 75 78
4 12 13 16 13 8 24 10 13 10 10 6 1 4 12 20 29 38 45 49 51 55 59 60 61 62 61 62 59 60 52 46 46 49 51 54 55 55 55 60 67 70 73 77
3 3 7 9 10 16 19 22 14 7 3 4 11 18 25 29 33 39 42 46 49 51 56 59 62 65 68 68 59 54 50 45 42 44 43 44 47 47 50 58 60 64 69 73
9 20 11 7 4 8 14 18 14 6 7 13 19 23 28 33 34 36 38 41 45 49 53 57 63 68 71 68 60 51 44 39 38 38 37 37 41 43 47 53 55 57 57 59
19 14 16 11 24 12 12 28 15 11 16 22 27 30 29 33 35 39 43 47 51 53 55 57 57 58 58 56 51 42 37 33 31 31 33 34 37 42 45 47 49 47 46 48
Wind_Direction_850mb
150 127 197 188 151 151 143 142 165 222 87 185 231 264 272 249 221 237 236 234 233 237 236 231 229 226 224 225 227 226 224 220 219 220 220 221 222 223 223 223 224 225 226 226
71 226 156 130 133 115 131 145 204 323 48 147 345 279 262 210 225 230 234 236 238 239 237 232 228 227 227 228 228 227 226 225 225 224 227 230 231 228 226 227 228 228 228 228
162 248 152 137 142 145 161 152 172 132 53 49 339 295 270 277 240 241 242 245 246 242 237 233 228 228 228 227 227 229 229 228 226 225 225 226 226 228 228 228 229 230 231 231
190 120 151 148 187 139 196 202 136 121 90 233 22 274 300 270 271 238 246 243 244 244 243 240 234 230 229 231 230 230 231 230 227 226 229 231 236 240 242 241 238 236 235 234
223 161 150 155 193 139 213 118 137 116 104 71 303 33 271 302 282 267 251 248 249 247 245 241 237 236 236 233 232 231 230 230 228 229 232 234 235 236 237 238 237 236 236 235
123 69 138 179 105 138 151 83 49 55 81 325 226 159 284 242 218 304 1 325 300 252 243 243 241 239 235 233 232 232 231 231 230 231 234 236 236 236 237 238 240 239 239 238
36 311 298 156 88 60 92 99 31 5 4 225 336 111 249 263 257 251 285 296 300 296 270 242 238 234 232 231 231 231 231 232 231 233 235 236 235 236 239 241 245 246 244 243
146 252 177 178 183 170 180 157 152 191 192 238 87 233 248 217 291 282 292 285 302 308 273 257 242 236 235 233 232 232 232 232 232 235 237 237 236 237 240 241 243 245 247 249
133 221 349 43 73 145 193 182 152 107 20 50 219 284 297 28 34 31 15 25 350 312 322 285 252 240 238 237 235 235 236 236 236 238 238 239 237 238 239 240 241 242 242 243
197 106 357 340 143 43 135 160 81 7 130 216 273 287 242 333 349 13 13 25 27 17 340 334 293 256 246 244 242 238 238 240 242 241 242 241 241 240 240 238 239 241 243 242
136 98 270 132 213 168 129 174 68 118 154 164 164 254 209 180 83 48 13 23 19 17 12 354 332 296 260 249 247 244 242 241 241 242 245 244 242 240 239 239 239 240 242 243
185 116 143 175 272 289 334 177 155 140 205 205 130 271 177 186 11 106 17 21 32 26 19 12 2 337 294 267 256 251 248 246 247 247 247 247 245 242 240 239 239 239 242 243
183 149 86 14 352 5 208 192 138 114 92 191 149 248 258 295 168 349 4 12 16 3 3 7 7 356 335 298 272 262 256 252 249 248 249 248 246 242 240 240 238 239 240 240
112 79 154 181 197 138 184 182 167 140 150 166 221 232 296 246 274 305 322 326 326 330 334 335 331 335 328 318 297 277 266 258 254 251 251 250 248 246 244 242 240 240 241 240
128 164 122 38 94 107 162 175 170 194 201 179 219 204 261 288 306 313 315 316 322 322 328 330 332 332 319 312 306 294 281 269 259 254 252 251 250 248 245 242 240 240 240 240
58 148 133 48 50 58 5 206 201 229 157 288 260 268 222 265 286 301 305 310 316 322 323 321 319 324 321 318 314 309 294 282 270 260 257 254 251 247 244 242 240 240 240 240
121 127 105 208 2 124 318 232 192 184 197 196 219 244 242 289 289 291 298 307 313 318 322 326 323 315 314 311 309 301 296 289 277 269 263 257 252 249 246 244 241 240 239 239
126 98 68 142 88 159 242 320 171 209 226 213 268 254 245 266 284 294 303 308 324 340 338 338 336 332 329 326 323 306 289 280 277 272 268 262 255 250 248 244 241 239 238 239
99 117 95 139 162 280 265 202 174 174 268 203 226 242 255 278 297 319 76 4 349 345 342 339 337 334 327 317 306 307 305 288 275 271 270 266 261 254 250 246 243 240 238 238
51 70 108 111 138 204 245 290 211 117 287 0 208 236 196 157 57 251 346 350 345 339 336 333 333 335 329 323 314 305 295 291 288 280 270 267 265 260 255 252 247 243 239 240
63 33 133 153 189 287 253 208 83 100 234 97 93 99 123 166 240 314 332 332 333 331 331 329 330 330 331 328 320 314 304 293 290 285 278 271 268 264 259 253 247 243 239 238
149 135 168 89 81 265 199 96 173 171 116 107 118 136 141 282 303 312 317 325 326 324 323 322 319 321 324 322 319 314 307 304 291 285 282 277 271 265 258 251 246 241 237 236
186 172 167 177 205 227 187 129 157 149 139 151 44 318 308 310 313 312 313 316 318 318 317 315 313 315 317 319 316 311 311 300 292 286 284 283 276 266 259 251 246 240 235 233
265 184 146 101 211 217 191 190 184 188 198 291 311 311 309 305 307 306 310 314 316 316 314 312 311 311 312 314 315 309 305 298 292 289 286 284 273 264 256 247 243 240 236 231
191 143 162 277 264 164 210 205 205 238 331 330 322 315 307 305 307 306 311 315 317 316 314 313 312 310 311 313 314 310 305 299 296 294 290 279 268 259 252 248 246 242 237 237
192 175 183 210 174 164 177 213 225 275 300 301 299 294 296 303 305 307 311 314 313 312 315 312 311 311 312 313 315 310 304 302 301 297 290 278 267 259 249 240 235 228 227 230